Dewpoint
50 50 50 50 50 49 48 48 49 50 51 50 50 50 48 48 48 48 46 46 46 46 50 53 56 57 54 48 46 51 58 59 55 55 52 49 47 43 40 39 40 36 37 38 38 38 36
49 51 50 49 48 47 49 49 49 48 48 49 49 49 48 49 48 48 48 46 46 46 48 52 55 57 50 42 47 52 55 54 55 54 52 51 48 45 40 38 37 36 36 37 39 38 39
51 49 49 48 48 51 50 49 49 48 48 48 48 48 48 47 47 47 46 46 47 47 49 51 54 54 45 41 45 50 55 55 56 54 53 54 52 44 42 41 40 40 37 38 38 39 38
48 49 49 48 50 49 48 47 47 47 47 47 47 47 46 47 47 46 46 47 47 48 49 51 53 53 42 46 43 43 45 46 53 55 53 53 51 46 43 42 39 37 37 34 35 36 37
48 48 48 49 49 48 47 46 46 45 46 47 46 46 46 46 46 46 46 47 48 48 49 49 48 50 39 50 44 42 42 44 47 53 55 52 50 45 42 38 35 35 31 33 34 36 36
48 48 48 49 49 48 47 47 47 46 46 46 45 46 46 46 47 47 47 47 48 47 47 46 48 44 41 40 43 42 41 43 47 51 51 50 49 44 41 36 31 33 32 31 31 32 35
48 48 47 49 48 48 47 47 45 46 45 45 45 45 46 46 46 47 46 43 37 40 44 44 45 40 39 43 43 43 41 41 48 48 46 48 43 40 40 38 35 34 34 31 31 32 29
48 48 46 49 48 47 46 46 46 46 46 44 44 45 46 47 48 46 44 39 40 41 35 43 46 43 42 42 39 41 43 45 45 41 43 41 38 42 43 41 38 36 32 30 31 32 29
47 46 46 49 48 48 47 46 45 46 46 43 44 46 47 47 48 45 42 41 46 43 36 39 45 43 41 42 39 40 42 42 42 40 38 37 37 40 37 36 32 31 30 30 29 30 29
46 46 47 48 48 47 46 45 45 45 44 42 44 46 47 48 46 44 40 45 46 43 31 38 42 43 42 43 39 41 44 41 40 38 36 35 34 35 35 33 32 29 31 30 29 27 24
46 45 46 47 47 46 46 46 45 45 44 44 45 47 48 48 45 41 43 46 46 42 21 37 40 45 43 40 38 38 42 40 37 37 37 35 35 32 33 33 32 31 31 29 29 27 24
45 46 45 47 46 46 45 43 45 44 44 46 47 48 49 47 45 44 47 46 43 27 22 34 41 39 38 38 38 40 40 40 40 38 37 34 34 34 32 32 32 32 30 29 29 26 16
45 46 44 47 45 45 43 45 44 44 46 47 48 49 47 47 41 46 47 42 26 20 35 32 37 37 36 36 37 38 37 35 35 34 34 36 34 33 33 31 33 29 25 17 14 15 16
45 44 44 46 44 45 44 44 44 47 48 49 49 46 47 48 47 47 43 32 20 33 34 38 36 35 35 35 36 37 35 34 35 33 31 27 27 31 32 31 30 28 25 18 12 17 19
45 44 45 44 44 45 45 44 46 48 50 49 47 43 46 47 47 46 40 25 28 33 37 36 33 33 32 34 37 35 34 33 33 32 26 25 25 32 32 32 31 30 25 28 23 22 14
45 44 43 43 46 45 44 45 45 49 50 47 40 43 42 47 47 44 36 32 32 38 35 33 30 31 31 31 33 32 31 32 31 32 31 29 25 32 32 32 33 29 30 25 22 8 13
44 44 43 42 43 43 44 45 45 48 49 46 39 36 42 47 46 39 31 31 36 36 35 32 31 28 30 29 30 29 30 31 31 30 31 30 28 29 33 30 29 30 29 27 25 20 14
44 43 42 42 44 44 45 45 45 47 48 44 38 28 42 45 35 37 33 34 37 37 37 34 30 29 28 31 29 28 29 30 32 32 29 31 30 22 29 31 31 30 28 27 19 15 21
44 43 42 42 42 43 44 44 44 46 48 40 36 37 43 41 28 34 36 35 37 38 35 33 30 30 30 29 27 27 30 34 33 32 30 31 27 20 23 28 30 29 29 29 28 28 17
44 43 42 42 41 42 42 43 45 46 48 41 35 28 35 40 38 36 34 36 34 36 33 30 30 29 28 28 28 30 31 34 35 34 39 34 29 22 20 22 28 25 29 29 29 24 23
44 43 42 42 41 41 42 42 44 46 47 40 36 35 38 29 34 34 37 36 34 34 35 34 30 29 30 30 29 31 32 32 35 38 35 32 23 25 28 29 29 28 28 29 28 28 25
43 43 42 42 42 41 41 42 44 45 45 40 35 37 37 34 34 33 34 33 34 35 35 34 35 36 33 34 32 30 32 31 31 33 31 33 23 31 28 30 31 28 30 29 29 29 29
42 44 42 41 42 41 41 41 42 43 43 41 42 42 40 34 32 30 31 33 33 35 36 37 35 37 37 38 39 36 34 33 32 31 31 31 30 31 25 28 30 28 30 31 32 33 32
41 44 41 42 41 41 41 40 41 41 42 43 43 42 38 31 33 31 32 34 33 36 35 38 38 37 40 41 39 38 37 35 33 33 35 34 34 34 27 27 17 29 33 33 32 35 36
41 43 42 40 40 41 41 41 40 40 41 41 44 41 39 32 35 34 35 35 36 36 37 38 40 41 41 39 36 35 35 35 36 34 35 36 36 31 28 27 27 29 36 35 34 32 36
40 42 44 40 41 42 42 40 40 40 40 38 44 43 39 36 32 38 37 33 33 32 34 39 42 43 41 38 34 27 28 29 33 35 36 37 38 34 32 26 24 26 32 36 36 30 36
41 41 44 41 40 40 41 41 41 38 39 37 41 42 40 36 36 37 37 37 37 34 33 36 37 37 39 34 32 28 24 30 31 31 33 35 35 32 32 30 29 31 32 38 28 27 36
41 40 43 41 40 39 40 40 39 39 37 37 35 43 38 35 34 37 39 42 41 36 33 35 36 37 36 31 31 30 28 30 29 30 32 33 31 31 33 30 24 31 36 33 32 35 37
42 41 42 44 42 39 40 39 39 38 39 38 32 37 40 37 33 39 38 38 40 43 40 39 37 38 38 34 32 33 32 34 30 26 32 31 31 30 31 29 31 31 34 36 36 36 36
Lifted_Index
11 11 10 10 10 10 10 9 9 9 8 8 7 7 6 5 5 6 6 7 8 7 5 3 2 1 2 2 2 0 -0 -0 0 1 2 2 3 3 4 4 5 5 5 5 5 5 5
10 10 10 10 10 10 10 9 9 9 8 8 7 6 5 4 4 5 6 7 7 7 5 3 2 1 2 2 1 0 -0 -0 0 1 1 2 3 3 4 4 5 5 5 5 5 5 5
10 10 10 10 10 10 10 10 9 9 8 7 6 4 3 3 3 4 5 6 6 6 5 3 2 1 2 1 1 1 0 -0 -0 0 1 1 2 3 4 4 4 5 5 5 5 5 5
11 11 11 11 10 10 10 10 9 8 7 6 5 3 2 2 2 3 4 5 5 5 5 3 2 2 2 2 1 0 0 0 -0 0 1 1 2 2 3 4 4 5 5 5 5 5 5
11 11 11 11 10 10 11 10 9 7 6 5 4 2 1 0 1 1 2 4 5 5 4 3 2 2 2 2 1 -0 -0 0 -0 -0 0 1 1 2 3 4 4 5 5 5 5 5 5
11 11 11 11 11 11 11 10 8 6 5 4 3 1 0 -0 -0 0 2 3 4 5 4 3 2 2 2 2 2 0 -0 -0 -0 -0 -0 0 1 2 3 3 4 4 5 5 5 5 6
11 11 11 11 11 11 11 9 7 6 4 3 2 1 -0 -1 -0 0 2 3 5 5 4 2 2 2 2 3 2 2 1 -0 -0 -0 0 0 1 2 3 3 3 4 5 5 5 5 6
11 12 12 11 11 11 11 9 7 5 4 3 2 0 -0 -0 -0 1 2 4 5 5 4 2 2 2 2 3 3 2 1 -0 -0 0 0 1 1 2 2 2 3 3 4 4 5 5 5
12 12 12 12 11 11 11 9 6 5 4 3 1 0 -0 -0 0 1 3 4 4 5 4 2 1 2 2 2 3 2 1 -0 -0 1 1 1 1 2 2 2 2 3 4 4 4 5 5
12 13 12 12 12 12 11 9 6 4 4 3 1 0 -0 -0 0 1 2 3 4 4 2 1 1 1 2 2 3 2 1 0 0 1 1 1 2 2 2 2 2 3 4 4 5 5 5
13 13 12 12 12 12 11 9 6 4 3 2 1 0 0 0 0 1 2 3 4 3 1 1 1 1 2 3 3 2 1 1 1 1 2 2 2 2 2 2 3 3 4 4 5 5 5
13 13 13 12 12 12 12 10 7 5 3 2 1 0 -0 0 1 2 2 3 3 2 1 1 1 2 2 3 3 2 2 2 2 2 2 2 3 3 3 3 3 3 3 4 4 4 3
13 13 13 13 13 13 12 10 8 5 3 1 1 0 1 1 1 2 3 3 2 1 1 1 2 2 3 3 3 3 3 2 2 2 3 3 3 3 3 4 4 4 3 3 2 2 1
13 13 13 13 13 13 12 11 8 5 3 2 1 2 2 2 2 3 3 2 1 1 1 2 2 2 3 3 3 3 3 3 3 3 3 3 3 3 4 4 4 4 4 3 2 1 1
12 13 13 13 13 13 12 11 8 5 3 3 3 4 3 3 4 4 3 2 1 1 1 2 2 2 3 3 3 3 3 3 3 3 3 3 3 4 4 5 5 5 5 4 3 2 1
13 13 13 13 13 13 12 10 8 6 5 5 5 5 4 4 5 4 3 2 2 2 2 2 2 3 3 4 4 4 4 4 4 4 4 4 4 4 5 5 5 5 5 5 4 2 1
13 13 14 14 13 13 12 10 8 6 6 6 5 5 5 5 4 4 3 2 2 2 2 3 3 3 3 4 4 4 4 4 4 4 4 4 4 4 5 5 5 6 5 5 4 3 2
13 13 14 14 13 13 12 10 8 6 6 6 5 5 5 5 4 3 2 2 2 2 2 3 3 3 3 4 4 4 4 4 5 5 5 5 4 4 4 5 6 6 6 6 5 4 3
13 13 14 14 14 13 12 10 8 7 6 6 5 4 5 4 3 2 2 2 2 2 3 3 4 4 4 4 4 5 5 5 5 5 5 5 4 3 3 5 5 5 6 6 5 4 3
13 13 14 14 14 14 13 11 9 7 7 6 5 4 4 4 3 3 2 2 2 3 3 3 4 4 4 4 4 4 5 5 5 5 5 5 5 4 3 4 5 5 5 5 5 4 3
13 13 14 14 14 14 14 12 10 8 7 6 5 4 3 3 3 3 3 3 3 3 3 3 3 4 4 4 4 4 4 4 5 5 5 5 4 4 4 5 5 4 4 5 4 3 3
13 13 14 14 14 14 14 14 12 10 8 6 5 4 4 3 3 3 3 3 3 3 3 3 3 3 3 3 3 4 4 4 4 4 5 5 4 4 4 4 4 3 3 4 4 3 3
14 13 14 14 14 14 14 14 13 12 9 7 6 5 4 4 3 3 3 4 4 4 3 3 3 2 2 3 3 3 4 4 4 4 4 4 4 4 3 3 2 2 3 3 3 3 3
14 13 14 14 14 14 14 14 14 13 11 9 8 6 5 4 4 3 3 4 4 4 3 3 3 3 3 3 3 3 3 4 4 4 4 5 4 4 2 2 1 2 2 3 2 2 3
14 13 13 14 14 14 14 14 14 14 13 11 9 7 6 4 4 4 4 4 4 4 3 3 3 3 3 3 3 3 3 3 3 4 4 5 4 3 2 1 1 2 2 3 2 2 2
14 13 13 14 14 14 14 14 14 14 14 13 11 9 7 5 4 4 4 4 4 4 3 3 3 4 4 3 3 3 3 3 3 3 4 4 4 3 2 1 1 2 2 3 2 2 2
14 14 13 14 14 14 14 14 14 14 14 14 13 11 8 6 5 5 4 4 4 4 3 3 3 3 3 3 3 3 3 3 3 3 3 3 3 3 2 1 2 2 3 2 2 2 3
14 14 14 14 14 14 14 14 14 14 14 14 14 13 11 8 7 5 5 4 4 3 3 3 3 3 3 3 3 3 3 3 3 3 3 3 3 2 2 2 2 3 3 2 2 3 3
14 14 14 13 14 14 14 14 14 14 14 14 15 14 13 10 8 6 6 5 4 3 3 3 2 2 2 3 3 3 3 3 3 3 3 3 3 3 3 3 3 3 3 3 3 3 3